Time,TemperatureF,DewpointF,PressureIn,WindDirection,WindDirectionDegrees,WindSpeedMPH,WindSpeedGustMPH,Humidity,HourlyPrecipIn,Conditions,Clouds,dailyrainin,SolarRadiationWatts/m^2,SoftwareType,DateUTC
2013-02-02 00:03:00,9.0,5.0,-100.00,ESE,107,2.0,4.0,84,0.00,,,0.00,0.000000,,2013-02-02 05:03:00,
2013-02-02 00:12:00,9.0,5.0,-100.00,ESE,107,2.0,4.0,84,0.00,,,0.00,0.000000,,2013-02-02 05:12:00,
2013-02-02 00:22:00,9.0,5.0,-100.00,ESE,107,2.0,4.0,84,0.00,,,0.00,0.000000,,2013-02-02 05:22:00,
2013-02-02 00:42:00,9.0,6.0,-100.00,ESE,115,0.0,4.0,89,0.00,,,0.00,0.000000,,2013-02-02 05:42:00,
2013-02-02 00:52:00,9.0,6.0,-100.00,ESE,115,0.0,4.0,89,0.00,,,0.00,0.000000,,2013-02-02 05:52:00,
2013-02-02 01:02:00,9.0,6.0,-100.00,ESE,115,0.0,4.0,89,0.00,,,0.00,0.000000,,2013-02-02 06:02:00,
2013-02-02 01:12:00,9.0,6.0,-100.00,ESE,115,0.0,4.0,89,0.00,,,0.00,0.000000,,2013-02-02 06:12:00,
2013-02-02 01:22:00,9.0,6.0,-100.00,ESE,115,0.0,4.0,89,0.00,,,0.00,0.000000,,2013-02-02 06:22:00,
2013-02-02 01:42:00,8.0,6.0,-100.00,ESE,121,0.0,0.0,93,0.00,,,0.00,0.000000,,2013-02-02 06:42:00,
2013-02-02 01:52:00,8.0,6.0,-100.00,ESE,121,0.0,0.0,93,0.00,,,0.00,0.000000,,2013-02-02 06:52:00,
2013-02-02 02:02:00,8.0,6.0,-100.00,ESE,121,0.0,0.0,93,0.00,,,0.00,0.000000,,2013-02-02 07:02:00,
2013-02-02 02:12:00,8.0,6.0,-100.00,ESE,121,0.0,0.0,93,0.00,,,0.00,0.000000,,2013-02-02 07:12:00,
2013-02-02 02:21:00,8.0,6.0,-100.00,ESE,121,0.0,0.0,93,0.00,,,0.00,0.000000,,2013-02-02 07:21:00,
2013-02-02 02:42:00,8.0,6.0,-100.00,East,100,0.0,0.0,93,0.00,,,0.00,0.000000,,2013-02-02 07:42:00,
2013-02-02 02:52:00,8.0,6.0,-100.00,East,100,0.0,0.0,93,0.00,,,0.00,0.000000,,2013-02-02 07:52:00,
2013-02-02 03:01:00,8.0,6.0,-100.00,East,100,0.0,0.0,93,0.00,,,0.00,0.000000,,2013-02-02 08:01:00,
2013-02-02 03:11:00,8.0,6.0,-100.00,East,100,0.0,0.0,93,0.00,,,0.00,0.000000,,2013-02-02 08:11:00,
2013-02-02 03:21:00,8.0,6.0,-100.00,East,100,0.0,0.0,93,0.00,,,0.00,0.000000,,2013-02-02 08:21:00,
2013-02-02 03:42:00,7.0,7.0,-100.00,ESE,117,0.0,0.0,98,0.00,,,0.00,0.000000,,2013-02-02 08:42:00,
2013-02-02 03:53:00,7.0,7.0,-100.00,ESE,117,0.0,0.0,98,0.00,,,0.00,0.000000,,2013-02-02 08:53:00,
2013-02-02 04:02:00,7.0,7.0,-100.00,ESE,117,0.0,0.0,98,0.00,,,0.00,0.000000,,2013-02-02 09:02:00,
2013-02-02 04:11:00,7.0,7.0,-100.00,ESE,117,0.0,0.0,98,0.00,,,0.00,0.000000,,2013-02-02 09:11:00,
2013-02-02 04:22:00,7.0,7.0,-100.00,ESE,117,0.0,0.0,98,0.00,,,0.00,0.000000,,2013-02-02 09:22:00,
2013-02-02 04:42:00,8.0,8.0,-100.00,ENE,68,0.0,0.0,100,0.00,,,0.00,0.000000,,2013-02-02 09:42:00,
2013-02-02 04:52:00,8.0,8.0,-100.00,ENE,68,0.0,0.0,100,0.00,,,0.00,0.000000,,2013-02-02 09:52:00,
2013-02-02 05:02:00,8.0,8.0,-100.00,ENE,68,0.0,0.0,100,0.00,,,0.00,0.000000,,2013-02-02 10:02:00,
2013-02-02 05:11:00,8.0,8.0,-100.00,ENE,68,0.0,0.0,100,0.00,,,0.00,0.000000,,2013-02-02 10:11:00,
2013-02-02 05:21:00,8.0,8.0,-100.00,ENE,68,0.0,0.0,100,0.00,,,0.00,0.000000,,2013-02-02 10:21:00,
2013-02-02 05:42:00,11.0,10.0,-100.00,ENE,63,0.0,0.0,95,0.00,,,0.00,0.000000,,2013-02-02 10:42:00,
2013-02-02 05:52:00,11.0,10.0,-100.00,ENE,63,0.0,0.0,95,0.00,,,0.00,0.000000,,2013-02-02 10:52:00,
2013-02-02 06:02:00,11.0,10.0,-100.00,ENE,63,0.0,0.0,95,0.00,,,0.00,0.000000,,2013-02-02 11:02:00,
2013-02-02 06:11:00,11.0,10.0,-100.00,ENE,63,0.0,0.0,95,0.00,,,0.00,0.000000,,2013-02-02 11:11:00,
2013-02-02 06:21:00,11.0,10.0,-100.00,ENE,63,0.0,0.0,95,0.00,,,0.00,0.000000,,2013-02-02 11:21:00,
2013-02-02 06:42:00,12.0,10.0,-100.00,ESE,116,0.0,0.0,93,0.00,,,0.00,0.000000,,2013-02-02 11:42:00,
2013-02-02 06:52:00,12.0,10.0,-100.00,ESE,116,0.0,0.0,93,0.00,,,0.00,0.000000,,2013-02-02 11:52:00,
2013-02-02 07:02:00,12.0,10.0,-100.00,ESE,116,0.0,0.0,93,0.00,,,0.00,0.000000,,2013-02-02 12:02:00,
2013-02-02 07:11:00,12.0,10.0,-100.00,ESE,116,0.0,0.0,93,0.00,,,0.00,0.000000,,2013-02-02 12:11:00,
2013-02-02 07:22:00,12.0,10.0,-100.00,ESE,116,0.0,0.0,93,0.00,,,0.00,0.000000,,2013-02-02 12:22:00,
2013-02-02 07:42:00,13.0,11.0,-100.00,ESE,108,1.0,3.0,93,0.00,,,0.00,0.000000,,2013-02-02 12:42:00,
2013-02-02 07:53:00,13.0,11.0,-100.00,ESE,108,1.0,3.0,93,0.00,,,0.00,0.000000,,2013-02-02 12:53:00,
2013-02-02 08:03:00,13.0,11.0,-100.00,ESE,108,1.0,3.0,93,0.00,,,0.00,0.000000,,2013-02-02 13:03:00,
2013-02-02 08:11:00,13.0,11.0,-100.00,ESE,108,1.0,3.0,93,0.00,,,0.00,0.000000,,2013-02-02 13:11:00,
2013-02-02 08:21:00,13.0,11.0,-100.00,ESE,108,1.0,3.0,93,0.00,,,0.00,0.000000,,2013-02-02 13:21:00,
2013-02-02 08:42:00,14.0,13.0,-100.00,SE,136,1.0,4.0,95,0.00,,,0.00,6.000000,,2013-02-02 13:42:00,
2013-02-02 08:52:00,14.0,13.0,-100.00,SE,136,1.0,4.0,95,0.00,,,0.00,6.000000,,2013-02-02 13:52:00,
2013-02-02 09:03:00,14.0,13.0,-100.00,SE,136,1.0,4.0,95,0.00,,,0.00,6.000000,,2013-02-02 14:03:00,
2013-02-02 09:11:00,14.0,13.0,-100.00,SE,136,1.0,4.0,95,0.00,,,0.00,6.000000,,2013-02-02 14:11:00,
2013-02-02 09:22:00,14.0,13.0,-100.00,SE,136,1.0,4.0,95,0.00,,,0.00,6.000000,,2013-02-02 14:22:00,
2013-02-02 09:42:00,17.0,17.0,-100.00,ESE,105,2.0,7.0,98,0.00,,,0.00,30.000000,,2013-02-02 14:42:00,
2013-02-02 09:52:00,17.0,17.0,-100.00,ESE,105,2.0,7.0,98,0.00,,,0.00,30.000000,,2013-02-02 14:52:00,
2013-02-02 10:03:00,17.0,17.0,-100.00,ESE,105,2.0,7.0,98,0.00,,,0.00,30.000000,,2013-02-02 15:03:00,
2013-02-02 10:12:00,17.0,17.0,-100.00,ESE,105,2.0,7.0,98,0.00,,,0.00,30.000000,,2013-02-02 15:12:00,
2013-02-02 10:22:00,17.0,17.0,-100.00,ESE,105,2.0,7.0,98,0.00,,,0.00,30.000000,,2013-02-02 15:22:00,
2013-02-02 10:42:00,21.0,20.0,-100.00,WSW,249,2.0,5.0,96,0.00,,,0.00,52.000000,,2013-02-02 15:42:00,
2013-02-02 10:52:00,21.0,20.0,-100.00,WSW,249,2.0,5.0,96,0.00,,,0.00,52.000000,,2013-02-02 15:52:00,
2013-02-02 11:12:00,21.0,20.0,-100.00,WSW,249,2.0,5.0,96,0.00,,,0.00,52.000000,,2013-02-02 16:12:00,
2013-02-02 11:22:00,21.0,20.0,-100.00,WSW,249,2.0,5.0,96,0.00,,,0.00,52.000000,,2013-02-02 16:22:00,
2013-02-02 11:42:00,22.0,20.0,-100.00,East,100,2.0,8.0,92,0.00,,,0.00,64.000000,,2013-02-02 16:42:00,
2013-02-02 11:52:00,22.0,20.0,-100.00,East,100,2.0,8.0,92,0.00,,,0.00,64.000000,,2013-02-02 16:52:00,
2013-02-02 12:03:00,22.0,20.0,-100.00,East,100,2.0,8.0,92,0.00,,,0.00,64.000000,,2013-02-02 17:03:00,
2013-02-02 12:11:00,22.0,20.0,-100.00,East,100,2.0,8.0,92,0.00,,,0.00,64.000000,,2013-02-02 17:11:00,
2013-02-02 12:22:00,22.0,20.0,-100.00,East,100,2.0,8.0,92,0.00,,,0.00,64.000000,,2013-02-02 17:22:00,
2013-02-02 12:42:00,23.0,23.0,-100.00,NE,42,2.0,6.0,98,0.00,,,0.00,51.000000,,2013-02-02 17:42:00,
2013-02-02 12:53:00,23.0,23.0,-100.00,NE,42,2.0,6.0,98,0.00,,,0.00,51.000000,,2013-02-02 17:53:00,
2013-02-02 13:03:00,23.0,23.0,-100.00,NE,42,2.0,6.0,98,0.00,,,0.00,51.000000,,2013-02-02 18:03:00,
2013-02-02 13:12:00,23.0,23.0,-100.00,NE,42,2.0,6.0,98,0.00,,,0.00,51.000000,,2013-02-02 18:12:00,
2013-02-02 13:22:00,23.0,23.0,-100.00,NE,42,2.0,6.0,98,0.00,,,0.00,51.000000,,2013-02-02 18:22:00,
2013-02-02 13:42:00,27.0,26.0,-100.00,ENE,78,2.0,5.0,94,0.00,,,0.00,54.000000,,2013-02-02 18:42:00,
2013-02-02 13:52:00,27.0,26.0,-100.00,ENE,78,2.0,5.0,94,0.00,,,0.00,54.000000,,2013-02-02 18:52:00,
2013-02-02 14:02:00,27.0,26.0,-100.00,ENE,78,2.0,5.0,94,0.00,,,0.00,54.000000,,2013-02-02 19:02:00,
2013-02-02 14:12:00,27.0,26.0,-100.00,ENE,78,2.0,5.0,94,0.00,,,0.00,54.000000,,2013-02-02 19:12:00,
2013-02-02 14:21:00,27.0,26.0,-100.00,ENE,78,2.0,5.0,94,0.00,,,0.00,54.000000,,2013-02-02 19:21:00,
2013-02-02 14:42:00,28.0,26.0,-100.00,ENE,64,2.0,6.0,93,0.00,,,0.00,46.000000,,2013-02-02 19:42:00,
2013-02-02 14:52:00,28.0,26.0,-100.00,ENE,64,2.0,6.0,93,0.00,,,0.00,46.000000,,2013-02-02 19:52:00,
2013-02-02 15:02:00,28.0,26.0,-100.00,ENE,64,2.0,6.0,93,0.00,,,0.00,46.000000,,2013-02-02 20:02:00,
2013-02-02 15:12:00,28.0,26.0,-100.00,ENE,64,2.0,6.0,93,0.00,,,0.00,46.000000,,2013-02-02 20:12:00,
2013-02-02 15:21:00,28.0,26.0,-100.00,ENE,64,2.0,6.0,93,0.00,,,0.00,46.000000,,2013-02-02 20:21:00,
2013-02-02 15:42:00,28.0,26.0,-100.00,ENE,67,2.0,5.0,93,0.00,,,0.00,40.000000,,2013-02-02 20:42:00,
2013-02-02 15:52:00,28.0,26.0,-100.00,ENE,67,2.0,5.0,93,0.00,,,0.00,40.000000,,2013-02-02 20:52:00,
2013-02-02 16:02:00,28.0,26.0,-100.00,ENE,67,2.0,5.0,93,0.00,,,0.00,40.000000,,2013-02-02 21:02:00,
2013-02-02 16:11:00,28.0,26.0,-100.00,ENE,67,2.0,5.0,93,0.00,,,0.00,40.000000,,2013-02-02 21:11:00,
2013-02-02 16:21:00,28.0,26.0,-100.00,ENE,67,2.0,5.0,93,0.00,,,0.00,40.000000,,2013-02-02 21:21:00,
2013-02-02 16:43:00,27.0,27.0,-100.00,NNE,23,1.0,5.0,98,0.00,,,0.00,25.000000,,2013-02-02 21:43:00,
2013-02-02 16:52:00,27.0,27.0,-100.00,NNE,23,1.0,5.0,98,0.00,,,0.00,25.000000,,2013-02-02 21:52:00,
2013-02-02 17:03:00,27.0,27.0,-100.00,NNE,23,1.0,5.0,98,0.00,,,0.00,25.000000,,2013-02-02 22:03:00,
2013-02-02 17:12:00,27.0,27.0,-100.00,NNE,23,1.0,5.0,98,0.00,,,0.00,25.000000,,2013-02-02 22:12:00,
2013-02-02 17:21:00,27.0,27.0,-100.00,NNE,23,1.0,5.0,98,0.00,,,0.00,25.000000,,2013-02-02 22:21:00,
2013-02-02 17:42:00,26.0,26.0,-100.00,North,350,0.0,3.0,100,0.00,,,0.00,8.000000,,2013-02-02 22:42:00,
2013-02-02 17:52:00,26.0,26.0,-100.00,North,350,0.0,3.0,100,0.00,,,0.00,8.000000,,2013-02-02 22:52:00,
2013-02-02 18:02:00,26.0,26.0,-100.00,North,350,0.0,3.0,100,0.00,,,0.00,8.000000,,2013-02-02 23:02:00,
2013-02-02 18:11:00,26.0,26.0,-100.00,North,350,0.0,3.0,100,0.00,,,0.00,8.000000,,2013-02-02 23:11:00,
2013-02-02 18:21:00,26.0,26.0,-100.00,North,350,0.0,3.0,100,0.00,,,0.00,8.000000,,2013-02-02 23:21:00,
2013-02-02 18:42:00,26.0,26.0,-100.00,ENE,78,0.0,1.0,100,0.00,,,0.00,0.000000,,2013-02-02 23:42:00,
2013-02-02 18:52:00,26.0,26.0,-100.00,ENE,78,0.0,1.0,100,0.00,,,0.00,0.000000,,2013-02-02 23:52:00,
2013-02-02 19:02:00,26.0,26.0,-100.00,ENE,78,0.0,1.0,100,0.00,,,0.00,0.000000,,2013-02-03 00:02:00,
2013-02-02 19:11:00,26.0,26.0,-100.00,ENE,78,0.0,1.0,100,0.00,,,0.00,0.000000,,2013-02-03 00:11:00,
2013-02-02 19:22:00,26.0,26.0,-100.00,ENE,78,0.0,1.0,100,0.00,,,0.00,0.000000,,2013-02-03 00:22:00,
2013-02-02 19:42:00,26.0,26.0,-100.00,ENE,73,0.0,0.0,100,0.00,,,0.00,0.000000,,2013-02-03 00:42:00,
2013-02-02 19:52:00,26.0,26.0,-100.00,ENE,73,0.0,0.0,100,0.00,,,0.00,0.000000,,2013-02-03 00:52:00,
2013-02-02 20:02:00,26.0,26.0,-100.00,ENE,73,0.0,0.0,100,0.00,,,0.00,0.000000,,2013-02-03 01:02:00,
2013-02-02 20:11:00,26.0,26.0,-100.00,ENE,73,0.0,0.0,100,0.00,,,0.00,0.000000,,2013-02-03 01:11:00,
2013-02-02 20:21:00,26.0,26.0,-100.00,ENE,73,0.0,0.0,100,0.00,,,0.00,0.000000,,2013-02-03 01:21:00,
2013-02-02 20:42:00,26.0,26.0,-100.00,ENE,72,0.0,0.0,100,0.00,,,0.00,0.000000,,2013-02-03 01:42:00,
2013-02-02 20:52:00,26.0,26.0,-100.00,ENE,72,0.0,0.0,100,0.00,,,0.00,0.000000,,2013-02-03 01:52:00,
2013-02-02 21:01:00,26.0,26.0,-100.00,ENE,72,0.0,0.0,100,0.00,,,0.00,0.000000,,2013-02-03 02:01:00,
2013-02-02 21:11:00,26.0,26.0,-100.00,ENE,72,0.0,0.0,100,0.00,,,0.00,0.000000,,2013-02-03 02:11:00,
2013-02-02 21:21:00,26.0,26.0,-100.00,ENE,72,0.0,0.0,100,0.00,,,0.00,0.000000,,2013-02-03 02:21:00,
2013-02-02 21:42:00,26.0,26.0,-100.00,NNW,337,0.0,2.0,100,0.00,,,0.00,0.000000,,2013-02-03 02:42:00,
2013-02-02 21:52:00,26.0,26.0,-100.00,NNW,337,0.0,2.0,100,0.00,,,0.00,0.000000,,2013-02-03 02:52:00,
2013-02-02 22:02:00,26.0,26.0,-100.00,NNW,337,0.0,2.0,100,0.00,,,0.00,0.000000,,2013-02-03 03:02:00,
2013-02-02 22:11:00,26.0,26.0,-100.00,NNW,337,0.0,2.0,100,0.00,,,0.00,0.000000,,2013-02-03 03:11:00,
2013-02-02 22:21:00,26.0,26.0,-100.00,NNW,337,0.0,2.0,100,0.00,,,0.00,0.000000,,2013-02-03 03:21:00,
2013-02-02 22:42:00,26.0,26.0,-100.00,WNW,303,0.0,0.0,100,0.00,,,0.00,0.000000,,2013-02-03 03:42:00,
2013-02-02 22:52:00,26.0,26.0,-100.00,WNW,303,0.0,0.0,100,0.00,,,0.00,0.000000,,2013-02-03 03:52:00,
2013-02-02 23:01:00,26.0,26.0,-100.00,WNW,303,0.0,0.0,100,0.00,,,0.00,0.000000,,2013-02-03 04:01:00,
2013-02-02 23:11:00,26.0,26.0,-100.00,WNW,303,0.0,0.0,100,0.00,,,0.00,0.000000,,2013-02-03 04:11:00,
2013-02-02 23:21:00,26.0,26.0,-100.00,WNW,303,0.0,0.0,100,0.00,,,0.00,0.000000,,2013-02-03 04:21:00,
2013-02-02 23:42:00,25.0,25.0,-100.00,NNW,339,0.0,0.0,100,0.00,,,0.00,0.000000,,2013-02-03 04:42:00,
2013-02-02 23:52:00,25.0,25.0,-100.00,NNW,339,0.0,0.0,100,0.00,,,0.00,0.000000,,2013-02-03 04:52:00,